Temperature
17 17 17 17 17 18 19 21 24 25 26 28 28 27 27 25 24 21 19 18 18 18 18 17 17 16 15 15 15 15 15 14 14 14 13 13 13 12 12 12 12 12 12 12 12 12 12 13 13
16 16 17 18 17 18 20 22 23 25 27 26 26 26 26 23 22 20 19 18 18 18 18 17 16 16 15 15 15 15 14 14 13 13 13 12 12 12 12 12 12 12 11 11 11 12 12 12 13
16 17 18 18 18 19 21 24 25 26 26 25 25 25 25 23 21 20 20 18 17 17 17 17 16 15 15 15 15 14 14 14 13 13 12 12 12 12 11 11 11 11 11 11 11 12 12 12 13
16 17 18 18 19 21 22 24 25 25 25 25 25 24 23 22 21 20 19 18 17 16 16 16 16 15 15 15 14 14 14 13 13 12 12 12 11 11 11 11 11 11 11 11 11 11 12 12 12
16 17 17 18 19 21 23 25 26 24 24 25 25 23 21 21 21 20 19 18 17 16 16 16 15 15 15 15 14 14 13 13 12 12 12 11 11 11 11 11 11 11 11 11 11 11 11 12 12
16 18 17 17 19 22 23 25 25 24 24 25 25 23 21 20 20 19 18 17 17 16 15 15 15 15 14 14 14 14 13 13 12 12 11 11 11 11 11 11 11 11 11 11 11 11 11 12 12
16 17 17 19 20 21 24 25 25 24 23 24 25 23 20 19 19 19 18 17 16 15 15 15 14 14 14 14 14 13 13 12 12 12 11 11 11 11 11 11 11 11 11 11 11 11 11 12 12
16 17 17 18 19 21 24 25 25 25 24 25 25 23 20 19 19 18 17 16 15 15 15 15 14 14 14 14 13 13 12 12 12 12 11 11 11 11 11 11 11 11 11 11 11 11 11 11 11
16 15 16 18 19 21 23 24 24 24 24 24 24 23 22 20 18 17 16 16 15 15 15 15 14 14 14 13 13 13 12 12 12 11 11 11 11 11 11 11 11 11 11 11 11 11 11 11 11
15 14 16 19 21 22 23 23 24 23 23 23 22 21 20 19 18 17 17 16 15 15 14 14 14 14 13 13 13 12 12 12 11 11 11 11 10 10 10 10 11 11 11 11 11 11 10 10 10
15 15 17 19 20 21 22 22 23 22 21 22 21 20 19 18 17 17 17 16 16 15 15 14 14 14 13 13 13 12 12 12 11 11 11 11 10 10 10 10 10 11 11 11 10 10 10 10 10
15 16 18 18 20 20 21 22 22 22 22 23 22 21 19 18 18 17 17 16 16 15 15 14 14 14 13 13 13 12 12 12 11 11 11 11 10 10 10 10 10 10 10 10 10 10 10 10 10
15 16 17 18 19 19 20 20 21 22 22 22 22 21 20 19 18 18 17 17 16 16 15 15 14 14 14 13 13 13 12 12 12 11 11 11 10 10 10 10 10 10 10 10 10 10 10 10 10
15 16 17 18 18 19 19 19 20 21 22 22 21 20 20 19 19 18 17 17 16 16 15 15 14 14 14 13 13 13 12 12 12 11 11 11 11 10 10 10 10 10 10 10 10 10 10 10 10
15 15 16 17 18 19 19 18 19 21 21 21 21 20 20 19 19 19 18 18 17 16 16 15 14 14 14 13 13 13 12 12 12 12 11 11 11 11 10 10 10 10 10 10 10 10 10 10 10
14 14 14 16 17 18 17 16 19 20 21 21 21 21 20 20 20 19 19 18 18 17 16 16 15 14 14 14 13 13 12 12 12 12 12 11 11 11 11 10 10 10 10 10 10 10 10 10 9
12 12 13 15 17 18 17 16 19 20 21 20 21 21 21 20 20 20 19 19 18 17 17 16 15 15 14 14 13 13 12 12 12 12 12 12 11 11 11 10 10 10 10 10 10 10 10 9 9
11 12 14 15 17 17 17 17 18 20 21 21 21 21 21 21 20 20 20 19 18 18 17 16 16 15 14 14 13 13 12 12 12 12 12 12 12 11 11 10 10 10 10 10 10 10 9 9 9
13 13 14 15 17 17 16 17 18 19 20 20 21 21 21 21 21 21 20 20 19 18 17 16 16 15 14 14 13 13 13 13 12 12 12 12 12 11 11 11 10 10 10 10 10 10 9 9 9
12 12 13 14 16 17 16 16 18 19 19 20 20 21 21 22 21 21 21 20 19 18 17 16 16 16 15 15 15 15 14 13 13 12 12 12 12 12 11 11 11 10 10 10 10 10 9 9 9
11 11 12 13 14 15 15 15 16 18 19 20 20 21 21 22 21 21 21 20 19 18 17 17 16 16 16 15 14 13 13 12 12 12 12 12 12 12 11 11 11 10 10 10 10 10 9 9 9
10 12 13 13 12 12 14 13 15 17 18 18 19 20 21 21 21 21 21 20 19 19 18 17 16 16 16 15 14 14 13 13 14 14 13 13 12 12 11 11 11 10 10 10 10 10 9 9 9
11 12 12 12 12 11 12 12 14 17 17 18 19 20 21 21 21 21 21 20 20 19 18 17 16 16 15 15 15 14 14 14 14 13 13 13 12 12 11 11 11 10 10 10 10 10 9 9 9
12 11 11 11 10 10 11 12 13 16 17 18 19 20 21 21 21 21 21 20 20 19 18 17 16 16 15 15 14 14 14 14 13 13 13 12 12 12 11 11 11 11 10 10 10 10 9 9 9
10 9 8 8 9 10 12 13 13 17 19 19 19 20 20 20 20 20 20 20 19 19 18 18 17 16 15 14 14 14 14 13 13 13 13 13 12 12 12 12 11 11 10 10 10 10 9 9 9
9 9 9 9 9 11 13 13 15 18 19 19 20 20 20 20 20 20 20 19 19 19 18 18 17 16 15 15 14 14 13 13 13 13 13 13 13 13 13 12 11 11 10 10 10 9 9 9 9
9 9 10 10 10 11 12 14 16 18 18 18 18 19 19 19 19 19 19 19 19 18 18 18 17 16 16 15 14 13 13 13 12 12 12 12 12 12 12 12 11 11 10 10 10 9 9 9 9
9 9 9 9 9 10 12 13 15 16 16 17 17 17 18 18 18 18 18 18 18 18 18 17 17 16 16 15 14 13 13 12 12 12 12 12 12 12 12 11 11 11 10 10 9 9 9 9 9
8 8 9 8 9 10 11 14 17 17 17 17 17 17 18 18 18 17 17 17 17 17 17 17 16 16 15 15 14 13 13 12 12 12 11 11 11 11 11 11 11 10 10 10 9 9 9 9 9
8 8 8 8 8 10 11 13 16 16 17 17 17 17 18 17 17 17 16 16 16 16 16 16 16 15 15 14 14 13 12 12 12 11 11 11 11 11 11 11 10 10 10 9 9 9 9 9 8
Wind_Speed
9 12 9 4 4 7 13 12 12 10 7 3 1 1 2 2 2 7 8 12 18 20 23 24 24 22 21 20 19 18 18 17 17 17 17 17 17 16 16 16 16 16 17 17 17 17 16 17 17
10 11 6 4 6 10 11 15 16 10 4 3 3 2 1 4 8 11 9 14 19 20 22 22 24 23 21 21 20 19 18 17 17 17 17 16 16 16 16 16 16 16 16 16 16 15 15 16 16
12 11 5 5 8 12 10 11 11 7 3 4 1 1 1 4 9 9 11 18 18 19 21 23 25 23 22 21 20 19 18 17 17 16 16 16 15 15 15 15 15 15 15 15 15 15 15 15 14
7 6 5 9 16 16 15 12 2 3 4 6 5 2 2 4 6 10 16 18 18 18 21 24 24 23 23 21 20 19 18 18 17 16 16 15 15 15 15 14 14 14 14 14 14 14 14 14 13
7 5 9 13 19 18 15 12 4 4 5 7 8 5 4 5 13 16 15 17 17 17 20 23 24 24 23 21 20 19 18 18 17 16 16 15 15 15 14 14 13 13 13 13 13 13 13 13 12
6 6 10 15 18 18 17 12 7 7 6 8 9 6 4 9 12 14 14 15 16 17 18 22 24 23 22 21 20 19 19 18 17 16 16 15 15 14 13 13 12 12 12 12 12 12 12 11 11
9 9 15 17 16 16 15 11 10 9 9 9 8 6 7 10 12 12 13 14 16 17 17 17 20 21 22 21 20 20 19 18 17 17 16 15 14 13 13 12 11 11 11 11 11 11 10 10 9
10 7 15 18 18 15 12 9 8 9 9 8 7 7 8 13 14 12 12 13 14 15 16 15 17 19 19 19 20 19 19 18 17 17 16 15 14 13 12 11 11 11 10 10 9 9 8 8 6
10 12 17 17 15 12 10 8 7 6 6 5 3 1 12 21 17 14 12 12 13 15 15 15 15 16 18 18 19 19 19 18 18 17 17 15 13 13 12 12 11 10 9 9 8 7 6 6 4
9 16 23 17 14 12 10 7 6 7 7 6 3 9 17 18 17 16 16 16 16 16 16 15 15 15 16 17 17 16 16 17 16 16 15 13 12 13 13 13 11 10 9 8 7 5 5 4 4
12 18 18 20 18 14 11 8 7 8 8 9 10 16 17 16 15 15 16 16 15 15 15 15 15 15 14 12 14 13 14 15 15 17 16 13 12 12 14 12 10 9 8 7 7 6 5 4 3
17 19 20 20 17 13 12 10 10 10 9 8 10 17 19 18 17 17 16 16 15 15 14 14 14 13 13 13 11 11 10 11 10 15 17 12 8 8 10 9 11 11 9 7 6 6 4 4 3
23 23 22 19 16 14 14 14 12 12 9 7 7 14 19 18 17 15 14 14 14 14 15 15 15 14 12 11 10 10 9 10 12 13 14 13 8 5 7 7 9 9 9 7 4 3 5 3 3
16 18 21 20 19 16 16 15 14 14 9 8 9 12 16 17 17 15 15 16 17 16 16 15 15 14 12 10 9 8 9 12 13 12 13 14 12 8 6 5 6 6 7 7 4 3 4 3 3
18 19 19 20 19 17 14 19 19 15 11 11 11 12 14 15 16 16 17 17 18 18 17 15 15 15 14 12 10 8 9 11 9 12 15 14 14 11 7 5 5 6 8 7 4 4 4 3 2
13 16 20 20 19 17 16 19 16 15 15 15 13 12 13 14 16 15 15 15 17 18 18 17 15 15 14 12 10 8 9 10 9 13 14 15 14 14 9 5 5 8 8 5 3 3 2 2 2
12 16 20 19 19 17 18 17 14 15 16 16 15 15 14 14 15 15 16 15 17 19 19 18 16 16 15 13 9 8 9 9 9 12 13 14 15 15 10 6 6 9 6 3 3 3 2 2 2
14 17 19 19 15 19 21 20 15 14 16 16 16 15 15 16 16 15 16 16 16 17 18 19 17 15 14 12 9 7 7 8 8 9 11 15 14 15 11 7 8 9 5 4 4 4 3 2 2
17 18 18 18 16 17 20 21 19 16 15 15 15 15 15 15 16 15 16 16 16 16 18 19 18 17 15 13 12 12 10 9 8 7 12 15 15 15 11 6 7 6 6 6 6 4 4 3 2
20 20 20 15 14 14 15 19 17 16 16 14 14 14 15 14 15 16 16 16 17 18 19 20 20 19 17 14 12 10 9 7 7 6 9 14 14 15 12 8 7 7 6 7 6 5 4 3 4
20 20 19 15 11 12 11 16 19 16 16 16 15 14 14 14 15 15 15 16 16 17 19 19 21 19 18 15 11 9 8 7 7 9 9 10 13 14 13 10 8 7 7 7 6 6 6 4 4
19 18 18 15 11 9 10 10 15 17 18 19 18 16 15 15 14 14 15 16 17 16 17 18 20 19 18 17 15 16 14 12 11 11 9 9 11 12 13 12 10 8 7 7 7 7 5 6 4
13 11 13 13 11 11 12 10 9 15 19 21 19 18 17 15 14 14 14 16 16 16 16 17 18 19 18 18 17 17 12 10 8 9 11 11 10 11 12 12 10 9 7 8 8 7 6 5 5
10 7 8 8 8 14 17 13 9 14 19 19 20 19 18 16 15 14 13 13 14 15 15 16 17 18 19 20 18 18 16 13 13 12 13 12 9 9 12 11 10 9 8 8 8 7 8 6 6
9 6 5 6 9 11 13 13 10 11 14 16 16 16 16 15 14 13 13 13 14 16 16 17 18 17 18 20 19 19 17 16 16 14 14 12 10 9 13 11 10 9 8 8 8 8 7 7 6
10 11 7 6 7 7 10 13 9 12 10 10 11 11 12 14 13 13 13 13 13 16 17 18 18 17 18 19 19 18 16 13 11 13 11 13 11 11 12 12 11 10 9 9 8 7 7 7 7
9 12 7 5 6 6 7 8 10 11 10 9 10 10 11 11 12 12 12 12 12 14 16 17 17 16 17 18 17 16 16 14 12 11 11 10 9 10 12 12 11 10 9 9 8 7 7 7 7
9 7 5 6 5 7 8 11 9 12 13 12 11 11 10 10 10 10 11 12 12 13 13 14 15 15 14 16 15 14 15 14 12 11 12 11 11 11 12 12 11 10 10 9 8 7 7 7 6
7 8 6 5 6 5 5 6 7 10 13 14 12 11 11 11 10 10 9 10 11 11 12 13 14 13 13 15 14 13 14 13 12 11 11 11 11 11 12 12 11 11 10 9 9 8 8 7 6
6 7 6 5 5 6 6 6 5 2 5 8 10 10 10 10 9 9 10 10 10 11 11 12 13 13 13 13 13 13 13 13 12 11 11 11 11 11 11 11 11 10 10 10 10 9 8 8 7
Wind_Direction
247 246 237 232 232 232 240 241 253 248 240 243 276 321 323 347 31 127 158 146 129 138 144 149 148 145 142 136 131 128 125 121 117 113 110 106 102 99 97 93 90 87 85 83 82 80 79 77 76
255 241 235 232 232 233 238 234 244 244 238 47 20 360 336 73 84 116 145 134 134 138 145 149 148 145 142 137 133 131 128 124 121 117 113 109 105 102 100 96 92 90 88 86 84 83 81 78 77
258 249 227 226 231 233 239 229 222 217 166 117 130 281 286 102 117 132 135 134 136 139 145 147 148 146 143 139 136 134 131 128 125 121 117 113 110 107 103 99 96 93 91 89 86 84 82 80 77
240 227 239 238 239 237 249 259 211 159 164 156 170 159 104 53 106 126 132 137 137 139 141 147 149 147 145 142 140 138 135 133 129 125 122 119 115 111 107 103 100 98 95 93 89 85 83 80 77
238 232 229 238 244 249 254 261 216 185 187 184 195 183 106 76 103 123 137 139 139 138 139 149 150 148 147 145 143 141 139 136 132 129 127 123 119 115 112 108 104 100 97 95 91 87 84 80 75
222 227 230 235 242 245 249 252 240 204 207 208 202 189 137 125 122 138 142 139 139 137 141 149 152 150 149 147 145 144 143 140 136 133 130 126 123 121 118 112 108 103 99 96 92 89 85 81 74
229 236 242 246 246 245 241 229 222 214 210 214 201 179 146 144 136 143 142 140 139 139 142 147 152 151 151 149 148 148 146 142 139 136 133 130 129 127 122 116 113 109 105 100 95 91 87 81 77
233 251 249 245 249 251 252 243 226 215 214 213 204 184 164 146 141 143 142 140 140 142 146 151 154 153 152 150 150 149 147 144 142 138 135 134 134 132 128 124 120 115 110 106 100 97 94 91 88
237 238 242 240 244 251 249 241 239 227 222 232 241 127 132 138 144 146 146 144 148 151 152 156 157 156 155 154 153 149 148 146 143 140 140 141 144 142 136 127 126 123 119 115 112 112 115 114 116
217 231 236 244 253 259 256 237 229 220 207 214 142 98 120 139 151 157 160 161 161 161 160 161 160 159 157 157 154 154 153 151 151 149 153 162 160 151 138 136 136 137 136 134 138 149 157 164 169
217 232 241 248 259 269 270 253 239 225 214 204 168 144 146 154 163 169 170 169 167 165 163 163 162 159 157 153 160 162 159 162 167 162 171 172 149 139 138 145 147 154 159 167 172 185 204 146 122
236 237 238 247 257 266 268 262 244 237 229 211 173 157 159 168 175 179 176 171 168 168 167 162 160 159 157 156 164 162 159 170 170 169 175 167 151 153 155 157 167 174 177 171 180 191 149 117 113
235 241 243 246 253 256 263 261 252 241 239 233 187 164 168 177 182 183 179 171 168 171 169 165 163 162 159 160 164 166 162 167 165 169 177 163 151 159 159 164 165 171 164 165 191 170 135 128 106
240 244 247 249 247 247 250 254 251 241 233 228 198 181 179 182 183 182 181 175 175 175 173 167 166 165 161 164 164 165 162 165 165 168 174 164 159 164 163 159 156 159 159 167 172 141 127 117 101
250 252 250 245 244 240 243 247 240 237 226 222 211 196 191 190 186 186 185 181 177 175 173 171 170 167 166 167 168 166 160 163 161 166 173 170 165 166 168 154 151 159 162 163 158 124 108 105 107
244 243 243 238 234 234 230 243 232 226 223 222 218 208 201 198 192 189 187 182 176 172 173 173 174 172 169 169 170 164 165 164 164 166 173 175 171 169 168 153 156 162 161 155 136 124 121 136 150
230 232 234 236 227 227 227 241 235 221 220 219 217 214 205 203 198 191 186 183 177 174 173 174 174 175 172 169 170 166 166 166 167 167 172 177 176 171 165 159 162 162 154 151 150 144 149 153 139
219 228 235 233 224 223 229 236 236 227 219 217 218 215 207 202 202 194 186 182 178 174 172 173 174 175 170 167 170 169 168 168 169 169 171 175 177 173 167 163 165 161 152 159 158 161 157 148 150
238 240 244 243 234 227 233 236 234 231 225 221 219 216 212 205 198 194 186 179 175 172 171 172 175 177 172 175 179 180 182 177 175 171 172 174 177 174 170 167 167 162 164 171 172 164 159 169 154
241 244 249 256 247 235 239 244 240 232 227 223 224 222 215 209 197 193 186 179 176 175 174 174 177 179 179 181 182 180 174 175 174 169 175 178 178 176 177 169 168 166 168 175 180 161 156 174 161
240 240 244 250 262 260 258 252 242 235 232 227 225 225 220 213 202 193 187 181 178 178 178 179 180 181 181 175 172 169 166 169 178 183 185 183 180 178 177 175 169 171 171 180 184 170 167 180 198
241 241 249 251 248 248 232 253 239 228 228 226 223 222 221 219 210 197 188 182 181 181 179 179 179 179 181 176 178 178 182 186 189 184 182 181 182 181 179 178 177 176 175 178 183 177 175 171 189
245 246 251 254 252 254 240 247 247 223 224 222 219 217 217 216 211 201 192 184 181 177 176 178 177 179 179 180 182 183 188 187 176 173 177 184 188 187 182 182 181 179 179 180 180 177 181 179 181
246 242 256 259 253 246 234 233 252 222 221 217 215 213 211 210 208 203 192 181 178 175 173 175 177 180 179 182 184 187 188 183 177 179 182 186 187 190 187 185 183 183 180 182 182 182 183 186 187
227 200 205 205 217 238 223 225 240 231 223 214 208 208 206 204 201 196 189 181 176 173 174 176 179 181 181 183 187 190 191 188 186 184 184 183 185 190 191 186 186 185 181 179 178 181 184 184 188
222 202 207 205 209 230 212 227 235 228 230 212 202 202 199 199 197 193 187 182 175 174 175 178 181 182 182 184 188 189 188 190 192 185 182 184 187 188 185 184 184 181 179 178 177 180 183 184 190
212 214 231 266 266 255 225 235 236 226 221 207 200 200 198 197 190 185 180 178 173 173 177 179 181 182 182 184 184 186 186 187 189 184 178 181 180 179 179 181 181 180 177 177 175 179 182 181 189
227 214 210 217 223 234 236 231 226 202 207 208 203 199 196 192 187 181 176 176 174 174 174 176 179 182 180 180 182 185 185 185 184 181 180 175 173 170 174 178 179 177 176 175 173 174 177 179 186
207 206 208 212 233 230 243 243 220 203 199 201 202 200 192 188 184 178 170 168 165 163 168 172 176 174 176 178 177 177 179 180 179 180 178 172 169 167 171 174 175 176 176 174 172 174 174 179 183
217 206 201 212 233 239 254 265 299 275 213 201 193 193 187 181 175 168 160 154 155 160 165 168 171 172 174 174 171 173 172 172 176 177 173 167 166 166 166 167 170 173 172 171 172 176 174 179 186
Height
1497 1499 1500 1503 1504 1502 1494 1481 1469 1464 1461 1460 1462 1463 1465 1470 1475 1486 1487 1487 1488 1490 1494 1499 1503 1506 1510 1512 1515 1517 1519 1521 1523 1525 1526 1528 1529 1530 1532 1533 1534 1535 1536 1536 1537 1537 1538 1538 1539
1496 1498 1502 1501 1500 1500 1487 1473 1468 1461 1460 1461 1463 1465 1467 1473 1475 1479 1483 1487 1488 1490 1494 1498 1502 1506 1509 1512 1515 1517 1519 1522 1523 1525 1527 1528 1530 1531 1533 1534 1534 1535 1536 1537 1537 1538 1538 1539 1540
1494 1497 1499 1495 1491 1488 1476 1462 1459 1458 1460 1463 1466 1468 1471 1475 1477 1479 1482 1485 1488 1491 1494 1498 1502 1506 1509 1512 1515 1517 1520 1522 1524 1526 1527 1529 1530 1532 1533 1534 1535 1536 1537 1537 1538 1539 1539 1540 1541
1494 1497 1495 1490 1483 1472 1465 1458 1455 1457 1460 1463 1467 1470 1473 1476 1476 1478 1481 1485 1488 1491 1494 1498 1502 1506 1509 1512 1515 1517 1520 1522 1524 1526 1528 1529 1531 1532 1533 1534 1535 1537 1537 1538 1539 1540 1540 1541 1542
1493 1492 1491 1485 1476 1466 1459 1455 1454 1457 1460 1463 1466 1469 1473 1475 1476 1478 1481 1485 1487 1490 1494 1498 1502 1506 1509 1512 1515 1518 1520 1522 1524 1526 1528 1530 1531 1533 1534 1535 1536 1537 1538 1539 1540 1541 1541 1542 1543
1490 1485 1485 1480 1470 1462 1457 1454 1454 1456 1459 1461 1464 1467 1473 1475 1475 1478 1482 1485 1488 1490 1493 1498 1502 1505 1509 1512 1515 1517 1520 1522 1525 1527 1528 1530 1532 1533 1534 1535 1537 1538 1539 1540 1541 1542 1543 1543 1544
1484 1481 1476 1470 1465 1458 1452 1451 1452 1454 1457 1459 1461 1465 1470 1474 1475 1478 1482 1485 1488 1490 1493 1497 1501 1505 1508 1511 1514 1517 1520 1522 1525 1527 1529 1530 1532 1533 1535 1536 1537 1539 1540 1541 1542 1543 1543 1544 1545
1478 1476 1470 1465 1462 1455 1449 1448 1449 1451 1454 1457 1459 1461 1466 1470 1473 1477 1481 1485 1488 1491 1493 1497 1501 1504 1507 1511 1514 1517 1520 1522 1524 1527 1528 1530 1532 1534 1535 1536 1538 1539 1540 1541 1542 1543 1544 1545 1545
1475 1475 1466 1460 1457 1451 1446 1446 1448 1449 1452 1454 1456 1457 1460 1465 1470 1475 1480 1484 1487 1490 1493 1496 1499 1503 1506 1510 1513 1516 1519 1522 1524 1526 1528 1530 1532 1534 1535 1537 1538 1539 1541 1542 1543 1544 1545 1545 1546
1467 1464 1457 1453 1450 1447 1445 1444 1446 1448 1450 1453 1456 1457 1459 1463 1468 1471 1475 1479 1483 1487 1491 1495 1498 1502 1505 1509 1512 1515 1518 1521 1523 1525 1528 1530 1532 1534 1535 1537 1538 1540 1541 1542 1543 1544 1545 1546 1546
1457 1454 1452 1450 1448 1446 1444 1444 1445 1446 1449 1450 1453 1456 1459 1462 1466 1470 1473 1476 1480 1485 1489 1493 1497 1500 1504 1507 1510 1513 1516 1519 1522 1525 1527 1529 1532 1534 1535 1537 1538 1540 1541 1542 1544 1545 1545 1546 1547
1451 1448 1448 1447 1447 1445 1444 1443 1444 1444 1445 1448 1450 1452 1455 1459 1463 1467 1470 1474 1479 1483 1487 1491 1495 1499 1502 1505 1509 1512 1515 1518 1521 1524 1526 1529 1531 1533 1535 1536 1538 1539 1541 1542 1544 1545 1546 1547 1548
1446 1444 1444 1444 1444 1443 1443 1442 1441 1442 1444 1445 1447 1449 1452 1455 1460 1464 1469 1473 1476 1480 1484 1488 1492 1496 1500 1503 1507 1510 1513 1516 1519 1522 1525 1528 1530 1532 1534 1536 1537 1539 1541 1542 1544 1546 1546 1547 1548
1440 1440 1440 1439 1439 1440 1441 1439 1439 1438 1441 1442 1444 1446 1449 1452 1456 1461 1466 1470 1473 1476 1481 1485 1489 1493 1497 1501 1505 1508 1512 1515 1518 1520 1523 1526 1528 1531 1533 1535 1537 1539 1540 1542 1543 1545 1546 1546 1547
1438 1438 1435 1434 1434 1435 1439 1437 1433 1435 1438 1439 1441 1443 1446 1450 1453 1457 1461 1464 1468 1472 1477 1481 1486 1490 1494 1498 1502 1506 1510 1513 1516 1518 1521 1524 1527 1529 1531 1534 1535 1537 1539 1541 1542 1544 1545 1545 1546
1435 1435 1434 1427 1429 1430 1437 1433 1427 1430 1433 1434 1436 1439 1442 1445 1449 1453 1457 1461 1465 1469 1473 1478 1483 1487 1491 1495 1500 1504 1507 1510 1513 1516 1519 1522 1524 1527 1529 1532 1533 1536 1538 1539 1541 1542 1543 1544 1545
1432 1431 1427 1424 1422 1424 1427 1425 1421 1424 1426 1427 1430 1433 1436 1440 1444 1448 1452 1456 1461 1464 1468 1473 1478 1483 1487 1492 1497 1501 1504 1508 1511 1513 1516 1519 1522 1524 1527 1529 1531 1533 1535 1537 1539 1540 1541 1543 1543
1426 1424 1421 1419 1415 1418 1419 1418 1416 1417 1418 1420 1424 1427 1429 1433 1437 1442 1447 1451 1456 1460 1464 1468 1473 1478 1483 1488 1493 1497 1501 1504 1507 1510 1513 1516 1519 1522 1524 1527 1529 1531 1533 1535 1537 1538 1540 1541 1542
1419 1419 1417 1412 1409 1412 1413 1411 1410 1411 1412 1413 1416 1419 1422 1426 1431 1436 1441 1445 1451 1455 1459 1463 1468 1473 1478 1482 1486 1490 1495 1499 1503 1506 1509 1512 1515 1518 1521 1524 1526 1528 1530 1532 1534 1536 1537 1539 1540
1418 1418 1416 1411 1407 1407 1409 1407 1405 1404 1405 1407 1409 1412 1415 1419 1424 1429 1434 1438 1443 1448 1453 1457 1461 1466 1471 1475 1480 1485 1490 1494 1499 1503 1506 1509 1512 1515 1518 1520 1523 1525 1527 1530 1532 1533 1535 1536 1537
1415 1415 1414 1413 1409 1406 1409 1408 1402 1399 1399 1401 1403 1406 1409 1412 1416 1421 1426 1430 1436 1441 1446 1450 1455 1459 1465 1470 1476 1482 1487 1491 1495 1497 1501 1504 1507 1511 1514 1517 1519 1522 1524 1526 1528 1530 1531 1533 1535
1412 1409 1410 1410 1414 1414 1411 1413 1399 1393 1393 1393 1395 1398 1401 1405 1409 1413 1418 1423 1428 1434 1439 1444 1449 1453 1459 1464 1469 1473 1477 1481 1484 1490 1494 1499 1503 1506 1510 1513 1515 1518 1520 1523 1525 1527 1528 1530 1531
1406 1406 1408 1410 1413 1415 1410 1412 1397 1386 1386 1384 1385 1389 1393 1397 1402 1406 1410 1415 1421 1427 1433 1438 1443 1448 1453 1458 1462 1466 1471 1476 1481 1486 1490 1494 1498 1502 1505 1508 1511 1514 1516 1519 1521 1523 1525 1526 1528
1402 1407 1410 1410 1414 1415 1405 1408 1395 1379 1374 1374 1376 1380 1384 1389 1394 1399 1404 1409 1414 1420 1425 1431 1436 1441 1446 1451 1456 1460 1465 1470 1475 1479 1483 1488 1492 1496 1499 1503 1506 1509 1512 1514 1517 1519 1521 1523 1524
1402 1410 1415 1416 1416 1406 1393 1396 1384 1366 1361 1362 1366 1371 1375 1381 1386 1391 1396 1401 1406 1411 1417 1423 1429 1435 1440 1444 1449 1454 1459 1464 1468 1473 1477 1481 1485 1489 1493 1497 1501 1504 1507 1510 1513 1515 1517 1519 1520
1399 1403 1406 1406 1403 1393 1385 1384 1370 1358 1355 1356 1359 1363 1368 1373 1378 1383 1389 1394 1399 1404 1410 1416 1422 1427 1433 1438 1442 1448 1453 1458 1463 1468 1472 1475 1479 1483 1488 1492 1495 1499 1503 1506 1508 1511 1513 1515 1516
1397 1397 1393 1397 1391 1389 1380 1368 1359 1352 1352 1353 1355 1358 1362 1367 1371 1376 1382 1387 1392 1397 1403 1408 1414 1421 1426 1431 1436 1442 1447 1452 1457 1463 1467 1471 1475 1479 1483 1487 1491 1494 1498 1501 1504 1506 1508 1510 1512
1391 1392 1395 1398 1396 1391 1376 1367 1359 1351 1351 1350 1352 1354 1357 1362 1367 1371 1376 1381 1386 1391 1397 1403 1408 1414 1419 1425 1430 1436 1441 1446 1452 1458 1462 1466 1470 1474 1478 1482 1486 1490 1493 1496 1499 1502 1504 1506 1508
1390 1392 1391 1392 1388 1385 1379 1362 1338 1340 1341 1344 1346 1348 1353 1357 1362 1366 1371 1376 1381 1386 1391 1397 1402 1408 1414 1419 1425 1430 1436 1441 1447 1452 1457 1462 1466 1470 1474 1477 1481 1485 1488 1492 1494 1497 1499 1501 1503
1386 1387 1390 1394 1389 1379 1373 1359 1335 1336 1335 1337 1340 1345 1349 1354 1358 1363 1367 1371 1376 1381 1386 1391 1396 1402 1408 1414 1419 1425 1431 1437 1442 1447 1452 1457 1462 1466 1469 1473 1477 1481 1484 1487 1490 1492 1495 1497 1498